| time (UTC) | temp F | wind direction | speed MPH | gust MPH | rain 1hr in | rain 24hr in | rain mn in | humidity % | barometer mb |
| 20260505031535 | 46 | 201 | 8.0 | 14.0 | 0.00 | 0.72 | 0.00 | 78 | 1005.8 |
| 20260505030032 | 47 | 227 | 6.0 | 12.0 | 0.00 | 0.72 | 0.00 | 78 | 1005.5 |
| 20260505024551 | 47 | 223 | 6.0 | 18.0 | 0.00 | 0.72 | 0.72 | 78 | 1005.2 |
| 20260505023036 | 48 | 212 | 7.0 | 15.0 | 0.00 | 0.72 | 0.72 | 78 | 1005.1 |
| 20260505021543 | 49 | 250 | 8.0 | 23.0 | 0.00 | 0.72 | 0.72 | 78 | 1004.8 |
| 20260505020025 | 49 | 202 | 11.0 | 17.0 | 0.00 | 0.72 | 0.72 | 78 | 1004.7 |
| 20260505014526 | 49 | 233 | 9.0 | 18.0 | 0.00 | 0.72 | 0.72 | 78 | 1004.6 |
| 20260505013023 | 49 | 223 | 7.0 | 14.0 | 0.00 | 0.72 | 0.72 | 78 | 1004.5 |
| 20260505011527 | 49 | 227 | 7.0 | 14.0 | 0.00 | 0.72 | 0.72 | 78 | 1004.5 |
| 20260505010021 | 49 | 232 | 7.0 | 12.0 | 0.00 | 0.72 | 0.72 | 77 | 1004.4 |
| 20260505004531 | 49 | 208 | 6.0 | 17.0 | 0.00 | 0.73 | 0.72 | 77 | 1004.2 |
| 20260505003019 | 50 | 242 | 7.0 | 14.0 | 0.00 | 0.73 | 0.72 | 76 | 1004.2 |
| 20260505001515 | 50 | 238 | 10.0 | 17.0 | 0.00 | 0.73 | 0.72 | 75 | 1004.1 |
| 20260505000015 | 50 | 257 | 7.0 | 19.0 | 0.00 | 0.73 | 0.72 | 75 | 1003.8 |
| 20260504234512 | 50 | 248 | 7.0 | 17.0 | 0.00 | 0.77 | 0.72 | 72 | 1003.6 |
| 20260504233012 | 50 | 229 | 8.0 | 15.0 | 0.00 | 0.77 | 0.72 | 69 | 1003.4 |
| 20260504231510 | 51 | 258 | 9.0 | 19.0 | 0.00 | 0.77 | 0.72 | 64 | 1003.1 |
| 20260504230008 | 51 | 219 | 7.0 | 17.0 | 0.00 | 0.77 | 0.72 | 65 | 1002.8 |
| 20260504224508 | 51 | 230 | 5.0 | 16.0 | 0.00 | 0.81 | 0.72 | 67 | 1002.7 |
| 20260504223006 | 51 | 253 | 5.0 | 11.0 | 0.00 | 0.81 | 0.72 | 66 | 1002.5 |
| 20260504221504 | 52 | 254 | 4.0 | 10.0 | 0.00 | 0.81 | 0.72 | 64 | 1002.5 |
| 20260504220003 | 53 | 233 | 5.0 | 18.0 | 0.00 | 0.81 | 0.72 | 62 | 1002.3 |
| 20260504214501 | 53 | 209 | 7.0 | 19.0 | 0.00 | 0.90 | 0.72 | 62 | 1002.1 |
| 20260504213128 | 53 | 258 | 8.0 | 18.0 | 0.00 | 0.90 | 0.72 | 62 | 1002.0 |
| 20260504211557 | 53 | 225 | 8.0 | 22.0 | 0.00 | 0.90 | 0.72 | 63 | 1001.8 |
| 20260504210101 | 53 | 239 | 10.0 | 22.0 | 0.00 | 0.90 | 0.72 | 62 | 1001.6 |
| 20260504204604 | 52 | 230 | 11.0 | 23.0 | 0.00 | 0.94 | 0.72 | 63 | 1001.5 |
| 20260504203052 | 53 | 229 | 10.0 | 22.0 | 0.00 | 0.94 | 0.72 | 63 | 1001.3 |
| 20260504201548 | 52 | 253 | 7.0 | 26.0 | 0.00 | 0.94 | 0.72 | 64 | 1001.0 |
| 20260504200048 | 51 | 258 | 19.0 | 33.0 | 0.00 | 0.94 | 0.72 | 64 | 1001.0 |
| 20260504194546 | 52 | 275 | 14.0 | 26.0 | 0.00 | 0.99 | 0.72 | 64 | 1000.7 |
| 20260504193045 | 51 | 234 | 13.0 | 29.0 | 0.00 | 0.99 | 0.72 | 67 | 1000.6 |
| 20260504191541 | 51 | 252 | 13.0 | 30.0 | 0.00 | 0.99 | 0.72 | 70 | 1000.4 |
| 20260504190039 | 50 | 234 | 16.0 | 28.0 | 0.00 | 0.99 | 0.72 | 72 | 1000.3 |
| 20260504184536 | 50 | 266 | 13.0 | 26.0 | 0.00 | 1.03 | 0.72 | 73 | 1000.1 |
| 20260504183033 | 49 | 201 | 14.0 | 30.0 | 0.00 | 1.03 | 0.72 | 74 | 999.9 |
| 20260504181530 | 49 | 212 | 16.0 | 26.0 | 0.00 | 1.03 | 0.72 | 74 | 999.7 |
| 20260504180026 | 48 | 232 | 14.0 | 24.0 | 0.00 | 1.03 | 0.72 | 78 | 999.5 |
| 20260504174524 | 47 | 263 | 11.0 | 28.0 | 0.00 | 1.03 | 0.72 | 81 | 999.5 |
| 20260504173021 | 45 | 260 | 10.0 | 33.0 | 0.00 | 1.03 | 0.72 | 83 | 999.4 |
| 20260504171517 | 44 | 236 | 13.0 | 29.0 | 0.00 | 1.03 | 0.72 | 84 | 999.3 |
| 20260504081544 | 37 | 242 | 11.0 | 34.0 | 0.03 | 0.49 | 0.17 | 93 | 980.2 |
| 20260504050014 | 39 | 309 | 5.0 | 11.0 | 0.03 | 0.35 | 0.04 | 93 | 975.3 |
| 20260504044507 | 39 | 330 | 2.0 | 6.0 | 0.04 | 0.36 | 0.04 | 93 | 975.1 |
| 20260504043005 | 39 | 355 | 3.0 | 8.0 | 0.02 | 0.35 | 0.02 | 93 | 975.2 |
| 20260504041505 | 39 | 47 | 3.0 | 10.0 | 0.02 | 0.34 | 0.02 | 92 | 975.3 |
| 20260504040002 | 39 | 64 | 3.0 | 10.0 | 0.01 | 0.33 | 0.01 | 92 | 975.5 |
| 20260504034559 | 39 | 53 | 4.0 | 11.0 | 0.00 | 0.32 | 0.00 | 92 | 975.9 |
| 20260504033102 | 39 | 64 | 5.0 | 13.0 | 0.01 | 0.32 | 0.00 | 92 | 976.1 |